导读 | 星芒AI

STRIX-4 是日本宇宙航空研究开发机构(JAXA)与三菱电机合作开发的一颗小型卫星,主要用于验证卫星间通信和高精度姿态控制技术。该卫星属于 STRIX 系列,旨在为未来的地球观测和通信卫星提供技术支持。STRIX-4 于 2023 年发射,重量约 100 千克,搭载了先进通信设备和图像传感器,具备高机动性和自主导航能力,为小型卫星的实用化和任务多样化提供了重要经验。

基本信息
目录编号:
60352
目录名称:
STRIX-4
国际标识:
2024-137A
轨道中心:
EARTH
卫星名称:
STRIX-4 雷达成像卫星
卫星全名:
卫星状态:
在轨 (已飞行455 天)
发射日期:
2024-08-02 UTC
国别 :
日本 (JP)
星等 :
--
轨道信息
数据来源 国际轨道数据 AOE轨道数据
星历时间 2025-10-31T08:19:48+0800
13小时前
查看轨道信息
2025-10-30T16:00:00+0800
1天前
查看轨道信息
半长轴 6873.308km 6873.375km
偏心率 0.0017104 0.0017073
轨道倾角 43.019° 43.019°
近地点辐角 240.693° 236.194°
升交点赤经 140.324° 144.144°
平近点角 119.222° 347.510°
近地点 483.416km 483.505km
远地点 506.93km 506.975km
周期 94.517分钟 94.518分钟
每日圈数 15.235408 15.235185
详细信息
使用方式:
暂无
2D轨道图
3D轨道图
轨道高度分析图
轨道倾角分析图
轨道综合分析图
查看轨道综合分析图